Home   Weather   Kortrijk   Past weeks

Flag for Belgium Past Weather in Kortrijk, Belgium — Yesterday and Last 2 Weeks

Now
68 °F

Clear.


Feels Like: 68 °F
Forecast: 57 / 80 °F
Wind: 3 mph from East

Location: Lille Airport

Current Time: May 26, 2017 at 12:15:54 am

Latest Report: May 25, 2017 at 11:30 pm


Visibility: 10 mi

Pressure: 30.15 "Hg

Humidity: 56%

Dew Point: 52 °F

Location of KortrijkLocation

Past Weather in Kortrijk — Graph

°F

Kortrijk Temperature Yesterday

Maximum temperature yesterday: 79 °F (at 5:30 pm)
Minimum temperature yesterday: 54 °F (at 6:00 am)
Average temperature yesterday: 67 °F

High & Low Weather Summary for the Past Weeks

 TemperatureHumidityPressure
High84 °F (May 17, 3:30 pm)100% (May 19, 4:30 am)30.39 "Hg (May 19, 4:30 am)
Low43 °F (May 15, 5:00 am)31% (May 17, 3:30 pm)29.33 "Hg (May 11, 6:30 pm)
Average62 °F68%30.01 "Hg
* Reported May 10 11:00 pm — May 25 11:00 pm, Kortrijk. Weather by CustomWeather, © 2017

Note: Actual official high and low records may vary slightly from our data, if they occured in-between our weather recording intervals... More about our weather records

Advertising

Kortrijk Weather History for the Previous 24 Hours

Scroll right to see more
 ConditionsComfort  
Time TempWeatherWind HumidityBarometerVisibility
11:00 pm
Thu, May 25
68 °FClear.6 mph53%30.15 "Hg10 mi
10:30 pm70 °FClear.7 mph53%30.15 "Hg10 mi
10:00 pm72 °FClear.7 mph47%30.15 "Hg10 mi
9:30 pm72 °FSunny.8 mph47%30.15 "Hg10 mi
9:00 pm73 °FSunny.7 mph44%30.15 "Hg10 mi
8:30 pm75 °FSunny.10 mph41%30.15 "Hg10 mi
8:00 pm75 °FSunny.12 mph41%30.15 "Hg10 mi
7:30 pm77 °FSunny.13 mph39%30.15 "Hg10 mi
7:00 pm77 °FSunny.13 mph39%30.15 "Hg10 mi
6:30 pm77 °FSunny.12 mph39%30.15 "Hg10 mi
6:00 pm77 °FPassing clouds.10 mph42%30.15 "HgN/A
5:30 pm79 °FPassing clouds.10 mph39%30.18 "HgN/A
5:00 pm77 °FPassing clouds.10 mph42%30.18 "HgN/A
4:30 pm77 °FPassing clouds.12 mph44%30.18 "HgN/A
4:00 pm77 °FPassing clouds.9 mph42%30.18 "HgN/A
3:30 pm75 °FPassing clouds.12 mph44%30.21 "HgN/A
3:00 pm75 °FPassing clouds.12 mph44%30.21 "HgN/A
2:30 pm75 °FPassing clouds.10 mph44%30.21 "HgN/A
2:00 pm73 °FPassing clouds.8 mph47%30.24 "HgN/A
1:30 pm72 °FPassing clouds.9 mph50%30.24 "HgN/A
1:00 pm72 °FPassing clouds.9 mph47%30.24 "HgN/A
12:30 pm70 °FPassing clouds.10 mph53%30.24 "HgN/A
12:00 pm70 °FClear.10 mph57%30.27 "Hg6 mi
11:30 am68 °FClear.9 mph56%30.27 "Hg6 mi
11:00 am66 °FClear.12 mph64%30.27 "Hg6 mi
10:30 am64 °FClear.9 mph68%30.27 "Hg5 mi
10:00 am64 °FClear.9 mph68%30.27 "Hg5 mi
9:30 am63 °FClear.10 mph77%30.27 "Hg4 mi
9:00 am61 °FClear.7 mph77%30.27 "Hg5 mi
8:30 am61 °FClear.7 mph77%30.27 "Hg4 mi
8:00 am59 °FFog.6 mph82%30.24 "Hg3 mi
7:30 am57 °FFog.6 mph88%30.24 "Hg3 mi
7:00 am57 °FClear.6 mph88%30.24 "Hg4 mi
6:30 am55 °FClear.5 mph94%30.24 "Hg4 mi
6:00 am54 °FClear.5 mph94%30.24 "Hg4 mi
5:30 am55 °FClear.6 mph88%30.24 "Hg4 mi
5:00 am55 °FClear.5 mph88%30.24 "Hg6 mi
4:30 am55 °FClear.5 mph88%30.24 "Hg6 mi
4:00 am55 °FClear.5 mph88%30.24 "Hg10 mi
3:30 am57 °FClear.5 mph88%30.24 "Hg10 mi
3:00 am57 °FClear.1 mph88%30.27 "Hg10 mi
2:30 am57 °FClear.3 mph88%30.27 "Hg10 mi
2:00 am59 °FClear.5 mph82%30.27 "Hg10 mi
1:30 am59 °FClear.3 mph82%30.27 "Hg10 mi
1:00 am59 °FClear.5 mph82%30.27 "Hg10 mi
12:30 am61 °FClear.3 mph77%30.27 "Hg10 mi
12:00 am61 °FClear.6 mph77%30.27 "Hg10 mi
Weather by CustomWeather, © 2017

See weather overviewHow to use our weather pages